Time,TemperatureF,DewpointF,PressureIn,WindDirection,WindDirectionDegrees,WindSpeedMPH,WindSpeedGustMPH,Humidity,HourlyPrecipIn,Conditions,Clouds,dailyrainin,SolarRadiationWatts/m^2,SoftwareType,DateUTC
2013-01-10 00:02:00,32.0,32.0,-100.00,SSE,157,0.0,0.0,99,0.00,,,0.08,0.000000,,2013-01-10 07:02:00,
2013-01-10 00:12:00,32.0,32.0,-100.00,SSE,157,0.0,0.0,99,0.00,,,0.08,0.000000,,2013-01-10 07:12:00,
2013-01-10 00:22:00,32.0,32.0,-100.00,SSE,157,0.0,0.0,99,0.00,,,0.08,0.000000,,2013-01-10 07:22:00,
2013-01-10 00:32:00,32.0,32.0,-100.00,SSE,157,0.0,0.0,99,0.00,,,0.08,0.000000,,2013-01-10 07:32:00,
2013-01-10 00:42:00,30.0,30.0,-100.00,SSE,158,0.0,0.0,99,0.00,,,0.08,0.000000,,2013-01-10 07:42:00,
2013-01-10 01:01:00,30.0,30.0,-100.00,SSE,158,0.0,0.0,99,0.00,,,0.08,0.000000,,2013-01-10 08:01:00,
2013-01-10 01:11:00,30.0,30.0,-100.00,SSE,158,0.0,0.0,99,0.00,,,0.08,0.000000,,2013-01-10 08:11:00,
2013-01-10 01:22:00,30.0,30.0,-100.00,SSE,158,0.0,0.0,99,0.00,,,0.08,0.000000,,2013-01-10 08:22:00,
2013-01-10 01:32:00,30.0,30.0,-100.00,SSE,158,0.0,0.0,99,0.00,,,0.08,0.000000,,2013-01-10 08:32:00,
2013-01-10 01:42:00,29.0,29.0,-100.00,NW,309,0.0,0.0,98,0.00,,,0.08,0.000000,,2013-01-10 08:42:00,
2013-01-10 02:02:00,29.0,29.0,-100.00,NW,309,0.0,0.0,98,0.00,,,0.08,0.000000,,2013-01-10 09:02:00,
2013-01-10 02:12:00,29.0,29.0,-100.00,NW,309,0.0,0.0,98,0.00,,,0.08,0.000000,,2013-01-10 09:12:00,
2013-01-10 02:22:00,29.0,29.0,-100.00,NW,309,0.0,0.0,98,0.00,,,0.08,0.000000,,2013-01-10 09:22:00,
2013-01-10 02:32:00,29.0,29.0,-100.00,NW,309,0.0,0.0,98,0.00,,,0.08,0.000000,,2013-01-10 09:32:00,
2013-01-10 02:42:00,28.0,27.0,-100.00,NNW,342,0.0,0.0,97,0.00,,,0.08,0.000000,,2013-01-10 09:42:00,
2013-01-10 03:02:00,28.0,27.0,-100.00,NNW,342,0.0,0.0,97,0.00,,,0.08,0.000000,,2013-01-10 10:02:00,
2013-01-10 03:12:00,28.0,27.0,-100.00,NNW,342,0.0,0.0,97,0.00,,,0.08,0.000000,,2013-01-10 10:12:00,
2013-01-10 03:22:00,28.0,27.0,-100.00,NNW,342,0.0,0.0,97,0.00,,,0.08,0.000000,,2013-01-10 10:22:00,
2013-01-10 03:32:00,28.0,27.0,-100.00,NNW,342,0.0,0.0,97,0.00,,,0.08,0.000000,,2013-01-10 10:32:00,
2013-01-10 03:42:00,27.0,26.0,-100.00,NNW,335,0.0,0.0,97,0.00,,,0.08,0.000000,,2013-01-10 10:42:00,
2013-01-10 04:02:00,27.0,26.0,-100.00,NNW,335,0.0,0.0,97,0.00,,,0.08,0.000000,,2013-01-10 11:02:00,
2013-01-10 04:12:00,27.0,26.0,-100.00,NNW,335,0.0,0.0,97,0.00,,,0.08,0.000000,,2013-01-10 11:12:00,
2013-01-10 04:22:00,27.0,26.0,-100.00,NNW,335,0.0,0.0,97,0.00,,,0.08,0.000000,,2013-01-10 11:22:00,
2013-01-10 04:32:00,27.0,26.0,-100.00,NNW,335,0.0,0.0,97,0.00,,,0.08,0.000000,,2013-01-10 11:32:00,
2013-01-10 04:42:00,27.0,26.0,-100.00,NNW,332,0.0,0.0,96,0.00,,,0.08,0.000000,,2013-01-10 11:42:00,
2013-01-10 05:02:00,27.0,26.0,-100.00,NNW,332,0.0,0.0,96,0.00,,,0.08,0.000000,,2013-01-10 12:02:00,
2013-01-10 05:12:00,27.0,26.0,-100.00,NNW,332,0.0,0.0,96,0.00,,,0.08,0.000000,,2013-01-10 12:12:00,
2013-01-10 05:22:00,27.0,26.0,-100.00,NNW,332,0.0,0.0,96,0.00,,,0.08,0.000000,,2013-01-10 12:22:00,
2013-01-10 05:32:00,27.0,26.0,-100.00,NNW,332,0.0,0.0,96,0.00,,,0.08,0.000000,,2013-01-10 12:32:00,
2013-01-10 07:42:00,25.0,22.0,-100.00,NNW,344,0.0,0.0,90,-99.99,,,0.08,0.000000,,2013-01-10 14:42:00,
2013-01-10 08:03:00,25.0,22.0,-100.00,NNW,344,0.0,0.0,90,-99.99,,,0.08,0.000000,,2013-01-10 15:03:00,
2013-01-10 08:12:00,25.0,22.0,-100.00,NNW,344,0.0,0.0,90,-99.99,,,0.08,0.000000,,2013-01-10 15:12:00,
2013-01-10 08:22:00,25.0,22.0,-100.00,NNW,344,0.0,0.0,90,-99.99,,,0.08,0.000000,,2013-01-10 15:22:00,
2013-01-10 08:32:00,25.0,22.0,-100.00,NNW,344,0.0,0.0,90,-99.99,,,0.08,0.000000,,2013-01-10 15:32:00,
2013-01-10 08:42:00,25.0,22.0,-100.00,North,358,0.0,0.0,87,0.00,,,0.08,1.000000,,2013-01-10 15:42:00,
2013-01-10 09:12:00,25.0,22.0,-100.00,North,358,0.0,0.0,87,0.00,,,0.08,1.000000,,2013-01-10 16:12:00,
2013-01-10 09:22:00,25.0,22.0,-100.00,North,358,0.0,0.0,87,0.00,,,0.08,1.000000,,2013-01-10 16:22:00,
2013-01-10 09:33:00,25.0,22.0,-100.00,North,358,0.0,0.0,87,0.00,,,0.08,1.000000,,2013-01-10 16:33:00,
2013-01-10 09:42:00,26.0,21.0,-100.00,NNW,347,0.0,0.0,82,0.00,,,0.08,8.000000,,2013-01-10 16:42:00,
2013-01-10 10:03:00,26.0,21.0,-100.00,NNW,347,0.0,0.0,82,0.00,,,0.08,8.000000,,2013-01-10 17:03:00,
2013-01-10 10:12:00,26.0,21.0,-100.00,NNW,347,0.0,0.0,82,0.00,,,0.08,8.000000,,2013-01-10 17:12:00,
2013-01-10 10:22:00,26.0,21.0,-100.00,NNW,347,0.0,0.0,82,0.00,,,0.08,8.000000,,2013-01-10 17:22:00,
2013-01-10 10:33:00,26.0,21.0,-100.00,NNW,347,0.0,0.0,82,0.00,,,0.08,8.000000,,2013-01-10 17:33:00,
2013-01-10 10:42:00,25.0,19.0,-100.00,NNW,335,0.0,0.0,78,0.00,,,0.08,9.000000,,2013-01-10 17:42:00,
2013-01-10 11:03:00,25.0,19.0,-100.00,NNW,335,0.0,0.0,78,0.00,,,0.08,9.000000,,2013-01-10 18:03:00,
2013-01-10 11:12:00,25.0,19.0,-100.00,NNW,335,0.0,0.0,78,0.00,,,0.08,9.000000,,2013-01-10 18:12:00,
2013-01-10 11:22:00,25.0,19.0,-100.00,NNW,335,0.0,0.0,78,0.00,,,0.08,9.000000,,2013-01-10 18:22:00,
2013-01-10 11:33:00,25.0,19.0,-100.00,NNW,335,0.0,0.0,78,0.00,,,0.08,9.000000,,2013-01-10 18:33:00,
2013-01-10 11:42:00,26.0,20.0,-100.00,North,350,0.0,0.0,79,0.00,,,0.07,16.000000,,2013-01-10 18:42:00,
2013-01-10 12:02:00,26.0,20.0,-100.00,North,350,0.0,0.0,79,0.00,,,0.07,16.000000,,2013-01-10 19:02:00,
2013-01-10 12:12:00,26.0,20.0,-100.00,North,350,0.0,0.0,79,0.00,,,0.07,16.000000,,2013-01-10 19:12:00,
2013-01-10 12:23:00,26.0,20.0,-100.00,North,350,0.0,0.0,79,0.00,,,0.07,16.000000,,2013-01-10 19:23:00,
2013-01-10 12:32:00,26.0,20.0,-100.00,North,350,0.0,0.0,79,0.00,,,0.07,16.000000,,2013-01-10 19:32:00,
2013-01-10 12:42:00,27.0,20.0,-100.00,NNW,342,0.0,0.0,73,0.00,,,0.07,25.000000,,2013-01-10 19:42:00,
2013-01-10 13:02:00,27.0,20.0,-100.00,NNW,342,0.0,0.0,73,0.00,,,0.07,25.000000,,2013-01-10 20:02:00,
2013-01-10 13:12:00,27.0,20.0,-100.00,NNW,342,0.0,0.0,73,0.00,,,0.07,25.000000,,2013-01-10 20:12:00,
2013-01-10 13:22:00,27.0,20.0,-100.00,NNW,342,0.0,0.0,73,0.00,,,0.07,25.000000,,2013-01-10 20:22:00,
2013-01-10 13:32:00,27.0,20.0,-100.00,NNW,342,0.0,0.0,73,0.00,,,0.07,25.000000,,2013-01-10 20:32:00,
2013-01-10 13:42:00,27.0,19.0,-100.00,NNW,343,0.0,0.0,71,0.00,,,0.04,22.000000,,2013-01-10 20:42:00,
2013-01-10 14:03:00,27.0,19.0,-100.00,NNW,343,0.0,0.0,71,0.00,,,0.04,22.000000,,2013-01-10 21:03:00,
2013-01-10 14:12:00,27.0,19.0,-100.00,NNW,343,0.0,0.0,71,0.00,,,0.04,22.000000,,2013-01-10 21:12:00,
2013-01-10 14:22:00,27.0,19.0,-100.00,NNW,343,0.0,0.0,71,0.00,,,0.04,22.000000,,2013-01-10 21:22:00,
2013-01-10 14:32:00,27.0,19.0,-100.00,NNW,343,0.0,0.0,71,0.00,,,0.04,22.000000,,2013-01-10 21:32:00,
2013-01-10 14:42:00,27.0,19.0,-100.00,NW,321,0.0,0.0,72,0.00,,,0.02,19.000000,,2013-01-10 21:42:00,
2013-01-10 15:12:00,27.0,19.0,-100.00,NW,321,0.0,0.0,72,0.00,,,0.02,19.000000,,2013-01-10 22:12:00,
2013-01-10 15:24:00,27.0,19.0,-100.00,NW,321,0.0,0.0,72,0.00,,,0.02,19.000000,,2013-01-10 22:24:00,
2013-01-10 15:32:00,27.0,19.0,-100.00,NW,321,0.0,0.0,72,0.00,,,0.02,19.000000,,2013-01-10 22:32:00,
2013-01-10 15:42:00,27.0,19.0,-100.00,West,259,0.0,0.0,70,0.00,,,0.01,16.000000,,2013-01-10 22:42:00,
2013-01-10 16:02:00,27.0,19.0,-100.00,West,259,0.0,0.0,70,0.00,,,0.01,16.000000,,2013-01-10 23:02:00,
2013-01-10 16:12:00,27.0,19.0,-100.00,West,259,0.0,0.0,70,0.00,,,0.01,16.000000,,2013-01-10 23:12:00,
2013-01-10 16:22:00,27.0,19.0,-100.00,West,259,0.0,0.0,70,0.00,,,0.01,16.000000,,2013-01-10 23:22:00,
2013-01-10 16:32:00,27.0,19.0,-100.00,West,259,0.0,0.0,70,0.00,,,0.01,16.000000,,2013-01-10 23:32:00,
2013-01-10 16:42:00,26.0,19.0,-100.00,SW,222,0.0,0.0,74,0.00,,,0.00,10.000000,,2013-01-10 23:42:00,
2013-01-10 17:02:00,26.0,19.0,-100.00,SW,222,0.0,0.0,74,0.00,,,0.00,10.000000,,2013-01-11 00:02:00,
2013-01-10 17:12:00,26.0,19.0,-100.00,SW,222,0.0,0.0,74,0.00,,,0.00,10.000000,,2013-01-11 00:12:00,
2013-01-10 17:23:00,26.0,19.0,-100.00,SW,222,0.0,0.0,74,0.00,,,0.00,10.000000,,2013-01-11 00:23:00,
2013-01-10 17:32:00,26.0,19.0,-100.00,SW,222,0.0,0.0,74,0.00,,,0.00,10.000000,,2013-01-11 00:32:00,
2013-01-10 17:42:00,24.0,20.0,-100.00,ESE,120,0.0,0.0,83,0.00,,,0.00,3.000000,,2013-01-11 00:42:00,
2013-01-10 18:02:00,24.0,20.0,-100.00,ESE,120,0.0,0.0,83,0.00,,,0.00,3.000000,,2013-01-11 01:02:00,
2013-01-10 18:12:00,24.0,20.0,-100.00,ESE,120,0.0,0.0,83,0.00,,,0.00,3.000000,,2013-01-11 01:12:00,
2013-01-10 18:22:00,24.0,20.0,-100.00,ESE,120,0.0,0.0,83,0.00,,,0.00,3.000000,,2013-01-11 01:22:00,
2013-01-10 18:33:00,24.0,20.0,-100.00,ESE,120,0.0,0.0,83,0.00,,,0.00,3.000000,,2013-01-11 01:33:00,
2013-01-10 18:42:00,23.0,19.0,-100.00,SSE,168,0.0,0.0,86,0.00,,,0.00,0.000000,,2013-01-11 01:42:00,
2013-01-10 19:02:00,23.0,19.0,-100.00,SSE,168,0.0,0.0,86,0.00,,,0.00,0.000000,,2013-01-11 02:02:00,
2013-01-10 19:12:00,23.0,19.0,-100.00,SSE,168,0.0,0.0,86,0.00,,,0.00,0.000000,,2013-01-11 02:12:00,
2013-01-10 19:22:00,23.0,19.0,-100.00,SSE,168,0.0,0.0,86,0.00,,,0.00,0.000000,,2013-01-11 02:22:00,
2013-01-10 19:32:00,23.0,19.0,-100.00,SSE,168,0.0,0.0,86,0.00,,,0.00,0.000000,,2013-01-11 02:32:00,
2013-01-10 19:42:00,22.0,19.0,-100.00,SE,138,0.0,0.0,89,0.00,,,0.00,0.000000,,2013-01-11 02:42:00,
2013-01-10 20:02:00,22.0,19.0,-100.00,SE,138,0.0,0.0,89,0.00,,,0.00,0.000000,,2013-01-11 03:02:00,
2013-01-10 20:12:00,22.0,19.0,-100.00,SE,138,0.0,0.0,89,0.00,,,0.00,0.000000,,2013-01-11 03:12:00,
2013-01-10 20:22:00,22.0,19.0,-100.00,SE,138,0.0,0.0,89,0.00,,,0.00,0.000000,,2013-01-11 03:22:00,
2013-01-10 20:33:00,22.0,19.0,-100.00,SE,138,0.0,0.0,89,0.00,,,0.00,0.000000,,2013-01-11 03:33:00,
2013-01-10 20:42:00,22.0,18.0,-100.00,East,89,0.0,0.0,85,0.00,,,-99.99,0.000000,,2013-01-11 03:42:00,
2013-01-10 21:02:00,22.0,18.0,-100.00,East,89,0.0,0.0,85,0.00,,,-99.99,0.000000,,2013-01-11 04:02:00,
2013-01-10 21:12:00,22.0,18.0,-100.00,East,89,0.0,0.0,85,0.00,,,-99.99,0.000000,,2013-01-11 04:12:00,
2013-01-10 21:22:00,22.0,18.0,-100.00,East,89,0.0,0.0,85,0.00,,,-99.99,0.000000,,2013-01-11 04:22:00,
2013-01-10 21:32:00,22.0,18.0,-100.00,East,89,0.0,0.0,85,0.00,,,-99.99,0.000000,,2013-01-11 04:32:00,
2013-01-10 21:42:00,23.0,19.0,-100.00,ENE,59,0.0,0.0,85,0.00,,,0.00,0.000000,,2013-01-11 04:42:00,
2013-01-10 22:03:00,23.0,19.0,-100.00,ENE,59,0.0,0.0,85,0.00,,,0.00,0.000000,,2013-01-11 05:03:00,
2013-01-10 22:12:00,23.0,19.0,-100.00,ENE,59,0.0,0.0,85,0.00,,,0.00,0.000000,,2013-01-11 05:12:00,
2013-01-10 22:22:00,23.0,19.0,-100.00,ENE,59,0.0,0.0,85,0.00,,,0.00,0.000000,,2013-01-11 05:22:00,
2013-01-10 22:33:00,23.0,19.0,-100.00,ENE,59,0.0,0.0,85,0.00,,,0.00,0.000000,,2013-01-11 05:33:00,
2013-01-10 22:42:00,22.0,18.0,-100.00,SSE,163,0.0,0.0,83,0.00,,,0.00,0.000000,,2013-01-11 05:42:00,
2013-01-10 23:02:00,22.0,18.0,-100.00,SSE,163,0.0,0.0,83,0.00,,,0.00,0.000000,,2013-01-11 06:02:00,
2013-01-10 23:12:00,22.0,18.0,-100.00,SSE,163,0.0,0.0,83,0.00,,,0.00,0.000000,,2013-01-11 06:12:00,
2013-01-10 23:22:00,22.0,18.0,-100.00,SSE,163,0.0,0.0,83,0.00,,,0.00,0.000000,,2013-01-11 06:22:00,
2013-01-10 23:32:00,22.0,18.0,-100.00,SSE,163,0.0,0.0,83,0.00,,,0.00,0.000000,,2013-01-11 06:32:00,
2013-01-10 23:42:00,22.0,18.0,-100.00,SSW,203,0.0,0.0,85,0.00,,,0.00,0.000000,,2013-01-11 06:42:00,